Location: Baia Mare
(47.6567°N, 23.5850°E)
Time: 00:20:32
(UTC+03:00)

ISS - Pass Details

Date: 18 July 2018
Orbit: 402 x 408 km, 51.6° (Epoch: 16 July)

Event Time Altitude Azimuth Distance (km) Brightness Sun altitude
Rises 03:23:36 0° 288° (WNW) 2,329 -0.1 -16.8°
Reaches altitude 10° 03:25:45 10° 295° (WNW) 1,469 -1.0 -16.7°
Maximum altitude 03:28:55 44° 9° (N) 577 -2.6 -16.4°
Drops below altitude 10° 03:32:06 10° 84° (E) 1,469 -0.5 -16.2°
Sets 03:34:15 0° 91° (E) 2,329 0.4 -16.0°
